Miyan Wuliaoyuan

operational
NORAD ID: 63991 Int'l Des: NNA 2025-100 Owner: GUOX/ZJLAB Country: CN
LEOCIRCULARRETROGRADESSO

About Miyan Wuliaoyuan

Description loading...

Live Position

Loading 3D Globe...

Upcoming Passes

Altitude History

Altitude vs Time

uPlot chart will show altitude changes over time

Two-Line Element Set

1 63991U 25100K 25312.84655071 .00035027 00000-0 14735-2 0 9994
2 63991 97.3890 25.2800 0011283 21.1975 338.9727 15.23249304 27138
Epoch: Nov 8, 2025 • Age: 33 hours

Current Status

Altitude 526.9 km
Velocity 7.60 km/s
Sub-Earth Point -80.46°S, 31.85°E
Launch Date May 14, 2025
Age 0.4 years
Type other

Technical Details

Classification Payload
Mass 50.00 kg
Dry Mass 50.00 kg
Total Mass 50.00 kg
Length 0.30 m
Diameter 0.30 m
Span 0.30 m
Shape Box + 2 pan
Manufacturer GUOX
Bus Type XSD
Phase Status In Orbit
Owner/State GUOX/ZJLAB/CN

Large Constellations

Loading constellations...